Regional Weather Roundup
Issued by NWS

Home | Current Version | Previous Version | Graphics & Text | Print | Product List | Glossary On
Versions: 1 2 3 4 5 6 7 8 9 10 11 12 13 14 15 16 17 18 19 20 21 22 23 24 25 26 27 28 29 30 31 32 33 34 35 36 37 38 39 40 41 42 43 44 45 46 47 48 49 50
000
ASUS43 KLMK 291310
RWRKY
KENTUCKY REGIONAL WEATHER ROUNDUP
NATIONAL WEATHER SERVICE LOUISVILLE KY
900 AM EDT FRI JUL 29 2016

NOTE "FAIR" INDICATES FEW OR NO CLOUDS BELOW 12,000 FEET
WITH NO SIGNIFICANT WEATHER AND/OR OBSTRUCTIONS TO VISIBILITY.

KYZ001>023-026-027-061>063-070>075-291400-
WESTERN AND SOUTH CENTRAL KENTUCKY

CITY           SKY/WX    TMP DP  RH WIND       PRES   REMARKS
PADUCAH        SUNNY     76  71  85 SW6       29.94R
HENDERSON      PTSUNNY   75  72  88 CALM      29.92R
OWENSBORO      MOSUNNY   77  73  87 S3        29.94S
HOPKINSVILLE   CLOUDY    77  75  94 SW9       29.94S
BOWLING GREEN  SUNNY     77  72  84 SW7       29.96S
GLASGOW        CLOUDY    74  74 100 CALM      29.97S
$$

KYZ024-025-028>034-038-045-046-053-291400-
NORTH CENTRAL KENTUCKY

CITY           SKY/WX    TMP DP  RH WIND       PRES   REMARKS
LOUISVILLE/SDF MOSUNNY   77  70  79 CALM      29.94S
LOUISVILLE/LOU MOSUNNY   76  70  82 CALM      29.95S
FORT KNOX      MOSUNNY   74  70  85 S3        29.94R
$$

KYZ035>037-039>044-047>052-055>060-089>105-291400-
NORTHEAST KENTUCKY

CITY           SKY/WX    TMP DP  RH WIND       PRES   REMARKS
LEXINGTON      CLOUDY    75  71  87 SW9       29.98R
COVINGTON      MOSUNNY   74  72  93 SW3       29.95F FOG
FRANKFORT      CLOUDY    74  71  91 S7        29.95S
$$

KYZ054-064>069-076>088-106>120-291400-
SOUTHEAST KENTUCKY

CITY           SKY/WX    TMP DP  RH WIND       PRES   REMARKS
JACKSON        LGT RAIN  70  69  97 CALM      30.02R VSB 3/4
LONDON         CLOUDY    70  68  93 S5        30.01F
SOMERSET       CLOUDY    72  72 100 CALM      30.01S
MIDDLESBORO    CLOUDY    70  70  98 CALM      30.03S
MONTICELLO     PTSUNNY  N/A N/A N/A W14       30.01R
$$





USA.gov is the U.S. government's official web portal to all federal, state and local government web resources and services.